WetterOnline ( https://www.wetteronline.de )

Wetter aktuell Freiburg im Breisgau

Aktuelles Wetter: Freiburg/Flugplatz (236m)

6-stündlich | Neueste Meldungen
Ortszeit Temperatur Wetter
Mo, 16.05. 20:00 23.0° C fast wolkenlos
Mo, 16.05. 14:00 21.5° C wolkig
Mo, 16.05. 8:00 20.7° C bewölkt
Mo, 16.05. 2:00 19.4° C bedeckt
So, 15.05. 20:00 25.8° C wolkenlos
So, 15.05. 14:00 24.5° C wolkenlos
So, 15.05. 8:00 14.5° C leicht bewölkt
So, 15.05. 2:00 12.4° C wolkig
Ortszeit Temperatur Wetter
Mo, 16.05. 21:30 18.6° C fast wolkenlos
Mo, 16.05. 21:20 18.6° C fast wolkenlos
Mo, 16.05. 21:10 19.3° C leicht bewölkt
Mo, 16.05. 21:00 20.0° C leicht bewölkt
Mo, 16.05. 20:50 20.0° C leicht bewölkt
Mo, 16.05. 20:40 21.0° C fast wolkenlos
Mo, 16.05. 20:30 22.5° C leicht bewölkt
Mo, 16.05. 20:00 23.0° C fast wolkenlos
Mo, 16.05. 19:30 23.5° C wolkenlos
Mo, 16.05. 19:00 23.6° C wolkenlos
Mo, 16.05. 18:30 23.2° C fast wolkenlos
Ortszeit Relative Feuchte Sichtweite
Mo, 16.05. 20:00 51% 60 km
Mo, 16.05. 14:00 67% 40 km
Mo, 16.05. 8:00 55% 55 km
Mo, 16.05. 2:00 63% 55 km
So, 15.05. 20:00 48% 50 km
So, 15.05. 14:00 42% 45 km
So, 15.05. 8:00 71% 40 km
So, 15.05. 2:00 78% 45 km
Ortszeit Relative Feuchte Sichtweite
Mo, 16.05. 21:30 72% 50 km
Mo, 16.05. 21:20 72% -
Mo, 16.05. 21:10 67% -
Mo, 16.05. 21:00 65% 50 km
Mo, 16.05. 20:50 65% -
Mo, 16.05. 20:40 59% -
Mo, 16.05. 20:30 51% 55 km
Mo, 16.05. 20:00 51% 60 km
Mo, 16.05. 19:30 51% 55 km
Mo, 16.05. 19:00 50% 60 km
Mo, 16.05. 18:30 54% 65 km
Ortszeit Niederschlagsmenge Niederschlagsart
Mo, 16.05. 20:00 11 l/m2 in 12 Std. Regen
Mo, 16.05. 14:00 10 l/m2 in 6 Std. Regen
Mo, 16.05. 8:00 0.1 l/m2 in 12 Std. -
Mo, 16.05. 2:00 0.1 l/m2 in 6 Std. Regen
So, 15.05. 20:00 0.0 l/m2 in 12 Std. -
So, 15.05. 14:00 0.0 l/m2 in 6 Std. -
So, 15.05. 8:00 0.0 l/m2 in 12 Std. -
So, 15.05. 2:00 0.0 l/m2 in 6 Std. -
Ortszeit Niederschlagsmenge Niederschlagsart
Mo, 16.05. 21:30 0.0 l/m2 in 1 Std. -
Mo, 16.05. 21:20 keine Meldung -
Mo, 16.05. 21:10 keine Meldung -
Mo, 16.05. 21:00 0.0 l/m2 in 1 Std. -
Mo, 16.05. 20:50 keine Meldung -
Mo, 16.05. 20:40 keine Meldung -
Mo, 16.05. 20:30 0.0 l/m2 in 1 Std. -
Mo, 16.05. 20:00 0.1 l/m2 in 1 Std. Regen
Mo, 16.05. 19:30 0.1 l/m2 in 1 Std. -
Mo, 16.05. 19:00 0.0 l/m2 in 1 Std. -
Mo, 16.05. 18:30 0.0 l/m2 in 1 Std. -
Ortszeit Stärke Spitze Richtung
km/h Bft. km/h Grad Sektor
Mo, 16.05. 20:00 7 2 22 20° N
Mo, 16.05. 14:00 4 1 50 30° NO
Mo, 16.05. 8:00 20 4 41 210° SW
Mo, 16.05. 2:00 7 2 31 320° NW
So, 15.05. 20:00 4 1 14 340° N
So, 15.05. 14:00 7 2 18 300° NW
So, 15.05. 8:00 4 1 11 300° NW
So, 15.05. 2:00 4 1 11 260° W
Ortszeit Stärke Spitze Richtung
km/h Bft. km/h Grad Sektor
Mo, 16.05. 21:30 0 0 4 - -
Mo, 16.05. 21:20 2 1 - 190° S
Mo, 16.05. 21:10 2 1 - 110° O
Mo, 16.05. 21:00 4 1 7 30° NO
Mo, 16.05. 20:50 4 1 - 30° NO
Mo, 16.05. 20:40 4 1 - 20° N
Mo, 16.05. 20:30 4 1 7 30° NO
Mo, 16.05. 20:00 7 2 11 20° N
Mo, 16.05. 19:30 6 1 11 30° NO
Mo, 16.05. 19:00 4 1 14 360° N
Mo, 16.05. 18:30 7 2 14 340° N
Ortszeit Untergrenze Bedeckung Gattung
total tief tief mittel hoch
Mo, 16.05. 20:00 9000 m 2/8 0/8 - - -
Mo, 16.05. 14:00 1800 m 8/8 1/8 - - -
Mo, 16.05. 8:00 3000 m 8/8 4/8 - - -
Mo, 16.05. 2:00 3600 m 8/8 8/8 - - -
So, 15.05. 20:00 - 0/8 0/8 - - -
So, 15.05. 14:00 - 0/8 0/8 - - -
So, 15.05. 8:00 10500 m 8/8 0/8 - - -
So, 15.05. 2:00 9000 m 8/8 0/8 - - -
Ortszeit Bedeckungsgrad in Achtel und Wolkenuntergrenze
Mo, 16.05. 21:30 1(1800m)
Mo, 16.05. 21:20 1(1800m)
Mo, 16.05. 21:10 3
Mo, 16.05. 21:00 3(1800m) 4(3000m)
Mo, 16.05. 20:50 3(1800m) 4(3000m)
Mo, 16.05. 20:40 1
Mo, 16.05. 20:30 2(1800m)
Mo, 16.05. 20:00 2(9000m)
Mo, 16.05. 19:30 keine Wolken
Mo, 16.05. 19:00 keine Wolken
Mo, 16.05. 18:30 1(5100m)
Ortszeit Luftdruck NN (hPa) Tendenz (hPa in 3 Std.)
Mo, 16.05. 20:00 1019 + 0,3
Mo, 16.05. 14:00 1020 + 0,2
Mo, 16.05. 8:00 1017 + 1,4
Mo, 16.05. 2:00 1016 + 0,9
So, 15.05. 20:00 1013 - 1,1
So, 15.05. 14:00 1016 - 1,2
So, 15.05. 8:00 1019 + 0,1
So, 15.05. 2:00 1019 - 0,6
Ortszeit Luftdruck NN (hPa) Tendenz (hPa in 3 Std.)
Mo, 16.05. 21:30 1021 + 1,4
Mo, 16.05. 21:20 1021 keine Meldung
Mo, 16.05. 21:10 1020 keine Meldung
Mo, 16.05. 21:00 1020 + 0,9
Mo, 16.05. 20:50 1020 keine Meldung
Mo, 16.05. 20:40 1020 keine Meldung
Mo, 16.05. 20:30 1019 + 0,5
Mo, 16.05. 20:00 1019 + 0,3
Mo, 16.05. 19:30 1019 - 0,2
Mo, 16.05. 19:00 1019 - 0,4
Mo, 16.05. 18:30 1019 - 0,4
Ortszeit Schneehöhe (cm)
Mo, 16.05. 20:00 0
Mo, 16.05. 14:00 0
Mo, 16.05. 8:00 0
Mo, 16.05. 2:00 0
So, 15.05. 20:00 0
So, 15.05. 14:00 0
So, 15.05. 8:00 0
So, 15.05. 2:00 0
Ortszeit Schneehöhe (cm)
Mo, 16.05. 21:30 0
Mo, 16.05. 21:20 0
Mo, 16.05. 21:10 0
Mo, 16.05. 21:00 0
Mo, 16.05. 20:50 0
Mo, 16.05. 20:40 0
Mo, 16.05. 20:30 0
Mo, 16.05. 20:00 0
Mo, 16.05. 19:30 0
Mo, 16.05. 19:00 0
Mo, 16.05. 18:30 0
Link zu dieser Seite / Seite empfehlen

Das Wetter in ...